Terminal Aerodrome Forecast
Issued by NWS Greer, SC

Home | Current Version | Previous Version | Text Only | Print | Product List | Glossary On
Versions: 1 2 3 4 5 6 7 8 9 10 11 12 13 14 15 16 17 18 19 20 21 22 23 24 25 26 27 28 29 30 31 32 33 34 35 36 37 38 39 40 41 42 43 44 45 46 47 48 49 50
000
FTUS42 KGSP 041458 AAC
TAFCLT
TAF AMD
KCLT 041458Z 0415/0512 21010KT 1/2SM -DZ FG VV002 WS020/24040KT
      TEMPO 0415/0416 1 1/2SM BR
     FM041600 20012KT 1 1/2SM BR OVC003
     FM041700 21013KT 5SM BR OVC006
     FM041800 22014G22KT P6SM BKN015
     FM041900 22015G25KT P6SM SCT035
     FM050800 19008KT P6SM BKN017=

USA.gov is the U.S. government's official web portal to all federal, state and local government web resources and services.